Theta_e
360 364 362 362 362 364 364 364 361 357 355 355 354 355 355 356 353 352 355 354 355 356 359 359 360 359 358 359 357 360 362 362 363 366 367 367 367 365 366 367 365 365 365 364 360 359 359 358 359 359 359 357 357 355 354 356 359 357 357 355 353 359 359 357 353 353 358 358 355 352 356 359 354 361 359 360 361 366 361 366 366 364 369 374 366
359 362 364 363 361 362 362 364 363 359 355 354 354 353 355 356 356 355 352 355 356 354 359 358 359 358 357 358 360 357 362 365 360 361 364 365 365 361 363 368 369 365 364 364 364 361 361 361 359 359 360 357 357 355 354 350 353 352 353 352 352 352 359 357 355 355 354 359 357 361 355 360 358 364 363 360 361 364 361 362 361 361 361 362 370
357 363 363 363 363 362 362 362 363 360 355 353 351 351 353 357 357 355 352 352 356 356 355 356 359 360 359 359 361 360 363 362 362 361 362 364 365 362 359 361 363 362 362 363 363 364 361 361 360 360 357 357 357 356 355 354 352 350 350 351 351 351 356 361 360 356 354 356 361 358 358 360 359 359 363 362 368 365 367 366 359 355 359 358 360
356 359 361 362 363 362 363 360 358 357 355 352 351 351 350 353 357 355 352 350 351 356 356 355 356 361 359 359 360 361 361 361 362 362 361 362 364 364 364 363 361 360 360 360 359 360 360 361 359 358 357 357 358 357 355 354 354 355 355 356 357 355 358 358 364 362 359 355 361 359 360 362 364 361 362 364 361 362 362 363 361 361 361 359 357
353 356 359 360 360 361 361 359 355 356 354 351 350 350 349 348 353 354 353 349 348 353 355 357 359 359 356 358 359 360 360 361 362 360 360 361 363 362 363 363 363 362 362 361 360 360 359 359 359 359 359 356 358 358 358 358 356 354 354 355 356 356 357 359 361 363 363 360 361 365 365 366 366 366 365 360 360 361 362 364 362 364 365 363 360
355 355 357 359 361 361 361 359 356 355 354 352 349 348 348 347 347 352 353 350 348 347 353 353 353 356 358 360 360 361 363 363 364 363 359 359 360 360 360 360 359 360 360 360 360 360 358 360 359 359 358 357 357 359 361 359 358 355 356 356 356 358 361 361 363 364 363 363 364 360 365 360 364 367 367 363 358 356 356 358 360 365 370 367 364
358 356 359 354 357 358 359 361 358 355 355 354 351 348 348 348 346 346 351 352 348 346 347 353 354 353 357 358 357 358 361 362 365 365 362 359 358 358 354 355 355 356 358 357 357 358 358 358 360 359 359 359 358 359 360 360 358 361 361 360 360 360 359 361 363 363 363 362 363 363 362 362 362 361 367 369 367 366 363 359 359 363 365 365 366
354 357 354 355 358 357 360 362 361 360 357 360 357 352 348 347 349 348 349 350 350 347 345 346 352 353 353 356 357 356 359 361 363 365 364 360 356 355 355 353 352 354 354 355 355 354 355 356 356 358 358 360 359 360 361 360 363 362 362 362 362 361 360 359 360 359 360 360 360 358 358 363 364 364 361 363 361 364 366 363 359 360 362 367 364
357 355 352 355 359 362 362 361 362 362 361 361 359 357 353 352 353 351 350 348 348 349 348 345 348 353 354 355 356 353 351 356 359 361 363 363 359 354 354 355 353 352 352 351 353 353 353 353 354 355 362 367 364 364 363 363 360 361 364 365 366 363 363 362 360 362 361 360 359 360 356 357 359 361 359 358 357 358 362 360 358 357 358 358 366
358 357 354 357 358 362 365 366 365 364 362 361 363 361 359 356 351 350 349 349 352 353 352 349 347 349 353 355 355 352 349 350 357 348 352 362 362 354 353 357 357 354 353 352 350 349 350 350 351 364 364 367 364 362 358 362 364 364 368 366 364 365 364 363 363 361 360 359 356 356 353 352 353 359 357 357 359 361 356 360 357 358 360 357 363
356 356 357 358 361 362 363 363 364 364 365 363 362 363 362 359 357 360 356 353 357 359 355 350 347 347 349 353 355 353 351 348 345 337 338 344 359 359 353 355 358 357 353 354 352 348 349 350 350 360 370 369 368 356 354 352 356 354 352 356 362 374 365 362 361 362 358 357 356 355 352 354 353 354 352 348 348 348 347 356 355 356 356 354 352
351 353 354 356 357 357 359 364 365 364 364 365 364 364 363 362 362 361 357 355 361 355 353 354 355 349 346 348 351 355 354 346 333 333 335 336 346 361 354 350 350 354 354 352 352 351 348 347 347 347 349 355 358 369 360 352 348 349 348 348 349 349 351 366 369 362 361 357 356 356 355 355 356 359 354 352 355 353 357 358 361 359 358 357 356
354 353 353 351 354 357 356 359 362 363 364 364 365 365 365 363 361 360 356 358 358 361 362 356 356 356 352 351 347 349 354 343 330 330 333 333 334 349 351 350 346 346 351 353 353 352 351 349 345 344 344 360 363 359 371 368 349 343 346 347 347 345 339 338 341 361 371 367 361 360 359 360 359 360 358 359 362 359 362 358 361 360 361 357 357
350 351 352 353 353 354 357 356 358 362 364 363 364 363 363 363 361 360 359 359 360 359 359 361 360 363 359 356 356 351 354 346 329 327 329 330 332 340 355 346 347 347 349 349 350 352 352 350 349 348 347 353 364 359 364 369 370 365 362 362 362 359 347 339 337 337 346 358 363 360 364 367 364 367 370 369 366 364 362 357 360 358 359 360 364
346 346 347 351 353 354 353 355 355 357 358 360 363 362 361 361 361 362 357 357 358 359 359 360 361 361 360 358 357 354 353 338 326 325 325 326 329 335 357 348 343 344 347 349 355 351 358 352 353 350 355 357 352 363 362 365 371 371 368 363 363 363 363 360 359 357 357 357 358 359 363 366 368 369 371 373 372 372 370 368 367 367 366 369 368
341 341 341 343 345 347 350 350 353 356 357 357 358 360 359 362 361 361 361 357 358 359 361 361 360 360 361 360 357 356 355 334 324 323 323 324 327 350 362 356 349 345 345 350 351 357 356 355 357 357 358 363 358 347 357 368 367 370 371 370 365 362 360 359 348 350 358 357 358 356 355 356 349 369 378 376 375 378 374 372 370 369 366 363 360
338 339 339 338 340 343 345 349 352 354 355 356 356 354 355 355 359 361 360 360 360 361 357 357 363 362 361 361 360 360 358 343 322 320 320 322 330 356 362 360 357 354 351 353 352 350 351 357 365 356 357 365 353 335 336 355 366 365 367 369 368 365 362 362 345 338 339 337 336 338 337 336 334 330 325 329 363 365 369 364 360 359 357 353 353
336 338 337 338 340 342 345 347 349 350 352 353 352 351 352 354 352 351 355 355 352 355 356 353 354 354 357 357 356 361 359 348 318 317 318 319 335 358 360 360 359 358 357 357 354 352 356 356 364 359 357 359 341 331 331 350 366 363 362 362 362 361 362 361 357 357 334 333 334 334 335 336 336 335 334 332 332 347 364 357 354 350 346 347 346
335 334 335 338 339 341 347 347 346 346 348 349 350 351 349 352 355 356 356 356 357 357 358 355 355 358 358 357 352 355 359 352 316 317 316 317 335 360 361 360 358 359 359 358 359 358 360 360 360 359 359 356 336 329 329 347 364 362 361 359 357 357 358 359 359 357 363 360 360 357 356 347 356 362 364 343 339 350 361 360 357 352 349 347 348
335 337 338 338 339 342 344 344 345 343 346 347 351 354 356 353 353 353 354 355 355 357 359 357 356 356 357 355 353 357 355 356 349 313 315 314 321 360 361 358 356 357 360 359 360 361 360 360 361 336 333 334 332 323 325 329 360 364 362 358 355 353 355 354 360 360 367 367 367 366 365 366 364 364 365 365 363 362 360 360 359 357 353 351 351
334 335 336 337 337 339 341 342 341 342 344 348 349 351 353 351 352 352 350 352 356 357 355 357 357 356 357 359 360 359 359 359 353 319 312 312 316 330 361 359 358 358 359 360 360 359 360 360 359 342 327 326 325 320 319 320 337 364 364 362 361 359 357 355 360 363 370 370 369 363 366 368 368 367 366 366 363 363 362 359 359 357 354 351 348
334 334 334 334 336 338 340 342 342 342 346 347 349 348 351 352 350 350 350 352 353 354 355 355 356 356 358 358 362 361 361 350 358 329 315 311 312 316 351 361 360 360 359 361 361 361 361 361 363 348 326 325 323 320 317 319 322 362 367 338 337 338 369 364 360 360 361 360 357 357 358 358 359 362 362 362 362 364 363 363 360 357 356 355 352
333 333 334 333 334 336 338 340 341 341 344 345 345 346 349 351 351 350 348 348 350 352 354 355 355 355 356 361 362 361 363 363 336 351 319 313 311 311 320 342 338 365 359 359 361 363 363 364 363 352 325 320 319 319 318 317 322 345 334 330 328 329 350 363 363 362 362 360 358 359 358 359 358 355 355 355 357 361 357 357 363 362 360 359 360
333 332 333 334 333 334 335 336 338 343 343 344 344 345 347 348 349 348 346 347 349 350 352 354 354 353 354 356 359 362 363 361 343 338 339 315 312 310 312 316 326 352 359 358 360 361 364 364 360 337 320 315 316 318 319 320 338 327 324 327 328 333 357 361 358 360 360 358 358 357 357 357 356 355 355 358 357 365 361 357 358 357 364 362 366
332 331 331 331 332 332 333 335 337 340 341 342 343 344 346 348 348 348 347 348 350 349 350 352 353 353 355 355 356 357 361 361 361 342 330 326 315 311 310 311 316 319 343 353 359 361 346 334 328 328 320 314 315 316 319 319 319 324 322 324 333 353 357 358 356 357 356 356 356 358 358 358 359 360 362 367 369 365 369 363 363 366 368 371 370
330 331 330 330 329 330 330 332 334 338 339 340 341 343 344 345 346 348 349 350 351 351 351 352 353 354 354 353 354 356 357 358 358 360 342 334 324 315 312 312 315 317 324 343 335 331 327 326 325 326 322 321 333 340 344 343 323 321 324 328 347 352 355 355 356 354 354 354 355 356 358 359 360 362 368 369 364 363 364 365 364 366 364 361 364
329 330 330 329 329 330 331 331 332 333 336 339 340 341 341 343 345 345 345 346 348 349 351 351 351 351 350 353 355 355 354 354 356 358 361 357 348 338 324 321 315 313 325 333 333 343 348 349 347 338 338 331 333 339 340 342 340 335 338 342 347 352 353 355 355 355 355 355 355 357 360 361 363 365 366 367 367 368 367 366 363 362 364 365 366
327 328 329 329 329 329 329 331 332 331 331 333 334 337 339 341 341 343 345 343 341 342 344 345 345 346 348 350 352 353 353 352 353 355 357 360 359 356 344 339 338 335 335 339 344 348 351 338 341 353 358 356 350 354 356 359 356 350 350 349 350 352 352 351 353 358 358 359 359 359 359 364 361 359 359 360 360 363 368 365 363 362 361 365 363
328 328 328 329 329 330 330 330 328 328 330 333 333 335 336 337 338 339 342 343 341 339 338 338 339 342 344 346 347 348 350 351 355 341 353 330 344 350 351 353 351 345 339 330 346 348 347 346 345 347 351 353 353 355 355 356 356 357 357 357 356 355 354 353 353 353 355 356 357 359 359 359 359 359 358 359 364 363 370 370 371 367 369 365 359
326 327 328 328 329 329 328 327 328 330 329 330 331 333 333 322 329 338 339 338 327 316 316 332 336 339 338 341 345 345 348 353 333 319 314 312 311 312 319 319 318 337 332 320 334 343 344 344 345 345 347 352 353 353 354 355 355 354 354 344 354 356 354 353 354 353 355 354 356 356 358 359 359 359 359 358 363 363 364 355 369 370 366 362 360
323 324 326 326 326 327 328 328 330 331 331 331 332 330 331 334 313 310 319 325 320 312 306 305 306 309 325 331 334 325 323 319 312 310 309 308 308 307 306 305 305 305 314 330 338 341 340 341 345 348 350 354 355 355 355 355 354 355 353 354 356 354 352 354 355 353 352 353 354 355 356 357 358 359 358 359 359 360 362 363 365 367 363 362 360
321 321 323 324 325 326 327 328 329 329 329 330 330 329 328 328 331 317 305 311 312 308 305 304 303 303 305 311 324 333 324 314 310 309 308 306 305 305 305 305 305 306 306 316 342 343 343 342 343 346 348 349 350 354 356 357 356 357 355 354 354 355 356 356 355 358 355 354 354 353 355 356 357 358 358 357 358 359 359 359 360 360 361 361 361
324 324 323 323 324 324 324 326 327 327 327 327 327 329 327 327 326 328 340 305 303 305 305 304 304 302 301 300 299 305 310 311 308 306 306 305 303 303 302 301 302 302 307 327 341 344 346 346 347 348 350 350 353 356 357 359 358 357 357 356 354 355 358 361 361 359 356 357 357 355 355 355 355 354 353 355 356 356 357 357 357 359 359 359 358
325 324 324 323 322 322 324 324 325 325 326 326 327 326 327 327 327 327 326 328 335 321 305 302 301 301 299 298 302 301 300 300 301 301 300 300 299 299 299 312 305 303 317 339 340 342 346 348 348 350 352 353 355 356 358 360 360 358 358 358 359 359 362 367 367 360 356 357 357 355 356 356 355 356 356 356 356 356 356 354 356 355 356 356 357
323 323 324 323 322 322 323 323 323 323 324 325 325 326 327 327 327 326 326 326 327 327 332 339 318 300 322 323 315 310 306 304 303 301 301 301 301 300 298 323 333 323 321 335 342 345 347 350 354 356 357 355 357 358 359 360 363 359 358 359 359 359 361 361 359 362 360 359 358 358 357 359 359 356 356 356 355 355 355 356 356 355 356 356 356
322 321 321 321 321 322 322 322 323 323 323 323 324 325 325 325 326 326 325 327 327 328 330 332 335 323 309 306 306 305 307 303 302 301 300 299 299 301 331 341 341 344 340 336 338 342 347 352 356 357 359 359 361 360 361 361 361 361 361 360 359 359 360 359 358 361 365 362 360 358 353 360 358 358 359 357 357 355 354 355 355 355 355 356 356
320 320 320 320 321 321 322 322 322 322 320 320 321 323 324 326 326 327 327 327 327 327 327 330 332 333 328 339 332 314 302 309 309 306 302 300 296 311 335 344 347 349 348 350 350 350 351 353 355 357 359 359 360 361 361 361 363 364 354 363 364 363 361 360 360 359 363 360 361 363 363 361 360 360 357 356 354 355 356 357 356 352 352 350 344
320 319 319 320 320 319 319 319 319 318 319 321 322 324 324 326 326 326 326 326 327 326 326 327 326 328 330 334 335 334 327 316 313 316 307 304 312 325 333 338 342 347 350 354 355 355 355 357 358 358 360 360 360 361 362 363 362 362 363 365 367 366 350 361 358 367 368 363 362 363 361 362 362 362 356 358 357 356 355 355 355 355 353 347 350
319 318 318 318 317 318 317 318 319 318 319 320 322 323 323 323 324 325 325 326 326 326 326 325 325 325 328 330 329 329 325 328 330 330 333 335 339 340 341 343 345 347 349 351 354 354 357 358 358 359 360 361 360 361 361 361 362 363 364 363 364 363 362 362 363 365 362 363 363 363 362 362 362 362 362 359 358 358 357 356 357 356 355 353 355
317 318 317 317 316 316 317 319 318 318 318 319 319 321 322 322 322 323 324 323 324 324 324 323 323 326 327 327 321 320 320 322 325 330 331 331 333 336 338 342 347 350 350 352 353 355 356 358 360 361 362 362 362 362 362 362 362 362 365 364 363 363 364 363 362 363 363 364 363 363 363 363 363 361 361 361 361 360 359 357 355 355 355 354 354
314 315 316 314 314 314 316 316 317 317 318 319 320 320 320 320 321 322 322 322 321 321 322 322 323 324 324 314 303 305 317 318 322 325 328 329 331 334 337 339 340 344 346 348 351 353 356 357 358 360 361 363 363 362 362 363 362 362 362 361 362 361 364 363 363 363 363 362 363 363 364 364 363 363 360 361 347 353 359 359 356 356 353 352 354
311 311 312 313 314 315 315 316 316 317 317 318 318 318 319 319 320 320 320 320 320 320 320 321 322 322 316 305 304 300 312 319 323 325 326 328 327 326 324 326 326 326 327 329 332 334 336 340 349 355 358 360 361 362 365 362 361 362 364 362 360 363 361 361 362 363 364 363 363 363 367 363 363 363 362 344 361 361 360 359 358 357 357 355 354
311 311 311 313 313 313 314 314 315 315 315 316 317 318 318 318 318 318 318 318 319 319 319 319 320 321 318 310 310 306 316 319 320 320 319 319 321 321 321 321 320 320 321 323 326 327 327 329 331 333 337 340 343 345 348 354 358 362 361 363 360 361 362 360 361 362 363 363 364 363 362 363 362 362 362 362 361 360 359 359 358 357 355 356 353
309 309 310 311 311 312 313 313 313 314 314 315 316 316 316 316 316 316 317 317 318 318 318 317 317 317 317 315 312 313 314 315 315 315 314 314 315 316 315 315 314 314 316 318 318 318 319 319 320 323 327 330 334 336 337 338 339 341 343 348 352 354 358 360 360 362 362 363 364 363 363 362 360 363 358 357 362 360 359 359 358 357 357 356 355
308 308 308 308 309 310 310 312 312 313 314 314 314 314 315 315 314 315 315 315 316 316 316 316 316 315 315 314 312 310 311 311 311 311 311 311 311 311 312 310 310 310 311 313 314 314 314 314 316 317 317 319 322 324 326 329 331 333 334 336 338 341 349 355 353 346 348 355 358 359 360 359 360 359 358 357 357 360 358 358 358 346 353 355 354
307 307 307 307 308 309 309 310 311 311 312 312 311 312 312 313 313 314 314 314 314 314 313 313 314 314 313 311 310 309 309 309 309 309 308 309 309 309 309 307 307 307 309 310 310 310 310 311 312 312 313 314 315 316 318 320 321 323 325 327 329 331 337 336 328 327 331 336 341 347 353 356 358 357 354 357 357 357 359 358 358 356 356 353 352
306 306 306 307 307 307 308 309 309 310 310 310 310 310 310 311 311 312 312 312 312 312 311 312 312 311 310 309 308 307 307 307 307 306 306 306 306 306 306 306 305 305 306 307 308 307 307 308 308 309 310 311 312 313 313 314 314 315 316 317 317 319 320 315 314 319 323 328 330 333 336 341 345 351 352 353 353 353 352 352 353 354 356 355 354
304 305 305 306 306 306 306 307 307 308 308 308 308 309 309 309 310 310 310 311 310 310 310 310 310 309 308 307 307 307 306 306 306 305 305 304 304 304 304 304 303 304 305 305 305 305 305 305 306 306 307 308 309 309 309 310 311 311 311 311 312 311 305 299 308 314 318 321 321 323 326 331 336 340 343 348 349 350 349 350 350 351 351 351 351
304 304 304 304 304 305 305 305 306 306 306 306 306 306 307 307 308 308 309 309 309 309 309 308 308 307 306 305 305 305 305 305 304 303 303 302 302 303 302 302 303 303 304 304 304 303 303 303 303 304 304 305 306 307 307 308 308 308 307 308 306 298 293 293 297 307 306 312 317 322 326 330 333 336 338 341 344 346 347 348 349 348 349 350 350
303 304 303 303 303 304 305 305 305 305 305 305 305 305 305 305 306 306 306 307 307 307 307 307 306 305 305 304 304 303 303 303 303 303 302 301 301 302 302 303 303 303 303 303 303 303 302 302 303 303 304 304 305 306 306 306 306 305 304 302 296 292 292 292 294 295 302 315 319 322 324 327 329 332 335 338 341 343 343 343 343 343 343 346 346
303 303 303 302 302 303 303 303 303 303 304 304 303 303 303 303 304 304 305 305 305 305 305 305 305 304 303 303 303 303 303 303 302 302 301 300 301 301 302 302 302 302 302 302 301 301 301 302 302 302 302 303 303 303 304 304 304 303 299 296 293 291 291 293 301 299 298 299 314 321 322 324 326 327 330 333 335 337 335 337 340 342 343 342 341
Wind_Speed
15 13 13 13 13 14 14 13 14 12 13 13 12 12 11 11 10 10 9 10 10 11 10 10 10 10 10 9 9 8 8 8 8 7 7 7 6 6 6 7 7 7 6 6 7 5 5 6 6 6 6 6 5 6 6 6 6 5 4 4 5 5 4 4 4 4 4 3 4 5 4 4 4 2 5 4 4 2 4 4 4 5 6 8 8
13 14 13 12 15 14 14 13 14 13 14 13 13 12 11 11 10 10 11 11 10 11 11 11 10 10 10 9 8 9 8 8 9 8 8 8 8 7 7 7 8 8 7 7 7 6 6 6 7 7 7 8 7 7 7 7 8 7 7 6 6 6 5 4 4 4 4 4 4 3 5 4 5 2 3 5 5 4 5 6 6 5 2 1 9
14 13 13 14 15 14 14 14 13 15 15 13 14 14 13 12 12 11 11 11 11 11 11 12 10 11 10 9 9 9 8 9 9 8 8 9 9 8 8 9 9 8 8 8 8 7 7 7 8 8 7 8 8 8 8 7 7 7 8 7 7 6 6 6 4 5 5 4 4 6 4 2 4 5 5 5 4 5 5 6 5 5 4 5 4
12 12 14 15 16 15 14 13 15 15 15 14 15 15 14 13 12 13 13 11 12 11 11 11 11 10 11 10 11 10 10 10 10 10 9 9 9 9 9 8 8 9 9 9 9 9 8 8 9 9 8 8 7 7 7 8 7 6 5 4 4 5 4 4 6 5 5 6 4 5 5 5 5 6 5 4 5 4 5 6 5 5 5 5 7
9 13 16 15 15 15 16 15 15 15 15 14 16 15 15 14 13 14 13 13 12 12 11 11 10 11 12 12 12 12 12 11 11 11 10 10 10 10 9 9 8 9 9 9 9 9 9 10 9 9 8 8 8 8 8 9 8 7 7 6 6 6 6 6 6 6 6 7 6 5 5 6 6 6 6 5 5 5 5 5 5 5 5 5 8
7 9 12 12 12 14 14 15 16 16 16 15 16 15 14 14 14 14 14 14 13 13 13 12 11 12 12 13 13 12 12 11 11 11 12 11 10 10 10 10 10 10 10 10 10 10 10 10 10 9 9 10 9 9 8 9 8 8 8 7 7 7 7 7 6 6 7 7 6 6 6 7 6 5 4 5 6 5 5 5 5 4 4 5 5
11 17 13 13 12 11 14 14 14 15 15 14 14 14 14 15 15 14 14 14 14 14 14 14 12 13 13 13 14 13 13 13 11 12 12 11 11 11 11 11 11 10 10 11 11 11 11 11 10 11 10 10 11 10 9 9 8 9 8 8 7 7 7 7 7 8 8 8 7 8 7 7 6 7 6 5 5 5 6 5 5 4 4 4 5
7 13 8 10 7 11 11 12 13 12 12 12 13 14 14 15 13 12 12 15 15 15 15 15 14 13 14 14 13 13 13 13 13 12 12 12 12 12 12 11 12 11 11 11 11 11 11 12 12 12 12 11 11 11 10 9 8 9 8 8 8 9 8 8 8 8 8 8 8 7 7 5 4 5 5 5 6 5 6 6 6 4 4 4 5
10 8 5 9 7 11 12 12 11 11 11 11 12 13 13 12 12 12 12 13 14 14 15 15 14 14 14 14 14 13 13 13 12 13 13 13 12 13 12 12 12 11 11 12 12 11 11 12 12 12 12 12 13 11 10 8 8 9 8 8 8 9 8 8 8 7 7 7 7 6 6 7 7 6 6 5 6 6 5 4 5 4 5 6 5
6 5 6 9 12 9 8 9 9 10 10 11 11 12 13 13 14 14 14 14 12 12 12 13 15 15 15 14 14 13 13 12 12 16 15 12 13 12 11 11 12 11 11 11 12 12 12 12 12 15 14 15 15 14 12 9 6 7 6 8 9 8 8 8 8 7 7 8 8 8 8 8 8 8 8 7 5 5 6 6 6 6 5 6 6
6 6 5 7 13 9 8 9 9 9 10 11 11 11 12 12 12 11 12 12 11 10 12 14 15 15 16 15 15 14 13 12 15 17 16 16 14 13 12 11 11 12 12 11 11 12 12 12 12 11 11 12 14 16 14 14 11 10 11 8 5 6 8 10 9 8 8 8 8 8 9 8 8 8 7 7 7 6 5 3 4 4 5 6 7
9 8 9 11 10 15 11 9 9 10 10 11 11 11 11 12 11 12 13 14 11 13 14 14 13 15 14 15 16 15 14 15 15 18 18 17 14 12 13 12 12 12 13 13 12 12 12 12 11 11 12 13 12 12 14 16 15 14 13 12 12 11 8 6 6 8 9 9 9 9 8 7 7 6 7 7 5 5 4 4 5 5 6 7 7
7 7 8 8 12 11 15 13 10 11 10 11 11 11 11 12 13 13 15 14 13 13 13 14 15 14 15 14 15 16 15 16 15 17 19 19 18 15 12 13 14 14 13 14 13 12 11 11 12 11 10 15 14 14 12 13 14 17 16 15 14 13 13 14 11 8 7 8 9 9 8 7 8 7 7 6 5 6 4 5 5 6 6 7 7
9 8 3 2 5 10 11 14 13 10 9 10 10 11 12 12 13 13 12 12 13 13 15 15 14 13 14 14 13 14 14 14 18 18 18 19 19 15 15 15 14 14 14 14 13 14 13 12 11 11 12 9 10 14 12 12 11 11 11 10 11 14 15 17 17 15 12 9 9 10 8 7 8 6 6 6 6 6 6 7 7 7 7 8 8
8 9 10 9 6 6 8 9 13 14 12 11 9 11 11 12 13 12 12 12 13 13 13 14 14 15 15 15 15 16 15 13 17 20 19 20 20 16 15 16 15 14 14 15 12 13 12 13 13 13 10 10 9 10 12 11 11 11 12 14 13 13 13 14 14 13 12 13 13 13 11 10 9 9 8 7 7 7 7 7 7 7 8 8 8
9 8 8 9 9 9 9 8 9 9 10 13 12 11 11 9 11 9 11 11 9 12 12 13 14 15 16 16 15 16 16 15 15 18 19 19 20 12 11 14 15 14 14 13 13 11 12 13 12 12 11 10 12 12 11 11 12 12 12 12 12 13 13 14 15 14 14 14 14 14 14 14 14 10 8 7 6 7 7 7 8 8 8 8 9
11 11 11 10 10 10 10 11 11 12 8 6 7 9 11 10 10 7 8 10 10 10 11 11 9 12 15 15 15 14 14 13 15 17 18 19 14 10 11 12 13 14 14 12 12 14 14 13 12 12 12 11 12 14 13 13 12 13 12 12 11 12 12 12 16 19 18 18 17 17 16 15 12 7 6 3 5 4 6 7 9 8 8 9 9
11 12 12 12 12 12 11 11 12 13 13 11 7 5 4 3 3 2 3 3 6 10 4 8 11 15 16 16 15 14 14 11 15 17 19 18 16 11 10 11 12 13 13 13 13 13 13 17 15 14 14 13 14 15 16 13 12 13 12 13 13 13 12 12 9 13 21 21 22 20 19 17 15 13 10 9 7 4 7 11 12 9 10 10 10
10 11 12 12 11 10 9 9 11 11 11 11 7 2 3 4 6 5 3 4 7 8 7 7 8 9 6 10 14 18 17 10 12 15 17 19 16 10 10 10 12 12 12 12 13 12 11 12 16 15 14 14 15 15 17 14 12 13 13 13 13 14 13 12 12 11 9 11 10 12 11 11 10 9 10 15 13 10 9 12 11 10 11 11 10
10 10 10 11 10 10 9 8 8 8 8 8 8 6 4 6 7 9 7 5 7 8 9 8 8 8 8 9 9 4 8 15 9 9 16 17 19 12 10 11 12 13 12 12 11 12 13 13 12 17 18 16 15 15 17 18 15 14 13 13 13 15 12 13 12 10 8 8 11 12 13 12 13 12 12 13 12 12 12 13 13 11 11 11 10
10 10 10 11 11 11 11 9 10 11 9 7 6 5 5 5 4 4 7 7 8 7 9 8 10 10 9 7 5 6 7 8 4 3 10 13 19 16 10 12 13 12 12 12 12 13 12 13 14 14 19 19 17 16 17 18 18 14 14 14 14 11 7 11 11 12 9 9 9 10 10 10 10 11 11 11 12 12 12 14 14 14 13 12 12
9 10 11 11 11 11 12 11 10 8 6 5 7 5 4 4 4 5 5 5 8 10 11 10 10 9 8 9 7 7 7 9 8 15 18 15 15 20 13 12 13 12 13 12 12 13 13 13 13 14 19 21 21 18 18 17 20 13 16 16 15 10 7 8 9 9 9 10 11 11 11 11 11 11 12 11 12 12 12 12 14 15 14 14 12
10 10 10 11 10 10 10 12 11 8 6 6 6 7 6 5 6 6 6 7 8 9 10 10 11 11 10 7 7 8 6 4 9 7 14 18 21 20 21 16 12 11 14 14 14 13 13 14 14 15 17 20 21 20 19 19 15 13 19 17 14 10 5 9 9 9 9 9 10 10 11 11 11 12 12 12 12 10 11 11 12 14 13 13 13
10 11 10 10 10 10 10 10 10 9 9 7 7 8 7 6 6 6 8 8 8 8 6 8 10 12 12 10 11 8 5 6 8 12 10 16 19 22 24 23 15 12 14 16 16 15 13 14 13 14 16 19 20 20 20 17 15 19 19 19 16 11 7 9 10 10 9 10 10 11 11 11 12 12 11 11 11 8 10 11 11 12 14 13 12
10 11 11 11 10 10 10 9 9 9 8 8 9 8 9 8 6 4 6 7 9 9 8 7 10 11 11 11 9 10 7 4 5 11 16 13 14 15 18 17 20 21 12 15 15 16 15 17 16 16 14 16 18 18 17 19 23 21 20 19 15 8 9 11 12 11 12 12 12 12 12 12 12 11 9 8 8 9 8 9 9 8 6 10 12
10 11 11 10 11 11 11 10 9 9 10 9 8 7 7 8 7 5 4 6 8 9 8 7 8 9 11 12 10 10 10 8 7 5 6 9 10 14 15 15 17 20 16 14 18 22 24 24 16 8 5 9 8 7 8 11 18 20 20 17 11 11 12 13 13 13 13 13 13 13 13 12 12 11 9 9 10 10 9 9 9 8 9 9 8
8 9 11 11 11 10 9 8 9 9 9 8 7 8 7 6 6 7 6 5 4 5 6 7 7 9 9 8 8 8 9 9 6 6 6 6 6 6 5 7 8 7 7 9 11 14 20 19 17 18 13 9 13 12 13 12 12 12 10 10 11 12 12 13 14 13 13 13 13 13 12 12 11 9 9 10 10 10 9 9 9 10 9 8 8
8 9 11 11 10 9 8 8 8 8 8 9 9 9 9 8 7 6 7 6 4 4 5 6 5 6 8 8 8 8 7 7 8 8 7 6 3 4 5 6 6 9 11 11 11 9 6 12 19 17 13 9 7 7 9 9 10 10 10 11 11 12 14 14 14 13 13 12 12 12 11 10 11 11 11 11 12 11 10 10 10 10 10 9 9
8 10 10 10 9 8 7 7 8 8 8 8 7 8 9 10 10 10 9 8 7 4 4 6 6 6 5 6 5 6 7 9 8 1 1 4 2 2 2 4 6 9 11 12 8 8 8 10 12 15 17 17 15 13 13 14 15 15 16 14 13 13 13 14 15 15 14 12 13 12 12 12 12 11 11 12 11 11 9 10 10 10 10 10 12
9 9 9 9 9 9 9 9 8 7 7 7 8 8 8 11 11 11 10 9 11 13 8 7 7 6 7 7 5 6 7 8 7 7 8 8 9 10 8 8 8 6 10 17 10 7 8 9 10 12 15 16 17 17 17 16 16 15 16 16 14 14 13 14 14 14 13 13 12 12 12 12 12 12 12 13 11 11 11 11 10 11 11 12 12
10 9 9 8 9 10 9 9 8 8 8 7 7 8 9 8 9 14 14 12 13 14 15 16 15 12 8 8 8 10 13 15 16 15 15 15 15 13 11 13 12 11 9 7 6 8 10 10 9 11 15 15 13 17 15 16 15 15 15 14 14 14 14 14 13 12 13 13 13 13 13 13 13 12 13 13 13 12 12 11 11 11 13 13 13
10 11 9 9 9 9 9 9 9 9 8 8 8 7 8 9 9 8 15 15 15 17 16 16 17 15 14 12 9 8 12 15 17 17 17 15 14 14 14 13 14 12 9 12 9 10 9 7 8 11 13 13 15 14 14 15 14 13 14 14 14 14 14 14 12 12 12 13 13 13 13 14 13 13 13 13 11 13 13 12 12 13 13 14 13
8 9 10 11 10 10 10 10 10 9 9 9 9 8 8 8 9 9 5 11 17 18 16 17 18 17 15 14 13 13 12 13 14 15 16 17 15 14 13 12 9 10 11 9 9 10 9 10 11 12 11 14 16 14 13 14 14 14 13 13 14 13 14 12 11 12 13 12 12 14 14 14 14 13 13 13 13 14 13 13 14 13 13 15 13
8 7 8 10 11 11 10 10 10 10 9 9 9 10 9 8 8 9 10 10 8 10 14 17 18 16 14 14 13 12 13 15 16 17 16 13 11 11 9 7 7 18 16 11 11 11 10 11 12 12 13 15 14 14 13 12 11 13 13 11 11 12 12 10 11 12 13 13 13 14 13 14 12 14 14 14 14 14 15 14 14 14 14 15 14
8 9 15 13 10 10 9 10 11 11 11 10 9 10 10 9 9 8 8 9 10 10 10 7 11 14 9 10 13 12 11 12 12 12 13 12 9 8 5 5 4 2 5 9 10 11 11 13 13 14 13 15 16 13 11 12 9 12 13 14 14 14 12 12 13 12 12 13 14 13 13 14 14 13 13 15 14 14 14 15 16 15 15 15 14
7 8 10 12 11 10 10 10 9 10 11 11 11 10 10 10 10 9 8 8 9 10 8 9 10 6 13 16 19 11 5 7 7 8 11 9 6 7 4 7 6 7 8 9 10 10 11 11 12 14 14 15 14 13 13 11 11 11 13 14 14 13 13 13 12 12 12 14 14 14 13 13 14 13 15 15 16 16 15 15 14 14 14 15 13
8 9 10 10 10 10 10 10 10 10 11 11 11 11 11 11 10 10 10 8 8 8 8 8 8 10 8 7 6 5 7 9 10 10 7 6 4 5 6 7 7 7 7 8 8 9 11 12 13 14 15 16 14 13 12 12 12 11 12 11 12 13 14 13 13 11 12 14 14 12 13 14 14 14 15 15 14 14 15 14 14 13 11 13 12
9 10 10 10 10 11 11 11 11 13 11 10 10 11 11 11 10 10 10 9 8 8 9 8 8 8 9 8 10 9 11 10 9 6 2 3 1 4 6 7 7 8 8 7 7 8 10 12 13 14 15 15 15 13 13 13 13 12 12 11 10 11 13 12 12 11 11 13 14 13 13 14 14 13 11 12 13 12 12 13 15 14 13 13 11
9 11 10 6 7 10 11 11 11 11 10 10 10 11 12 12 11 10 10 10 9 8 7 8 8 8 7 8 9 11 13 9 6 3 5 6 5 5 6 7 8 8 8 8 8 8 8 9 11 12 12 13 14 14 14 13 12 11 10 12 11 12 13 14 15 14 15 15 15 14 15 15 15 15 14 15 15 15 15 14 12 13 14 13 11
10 10 10 10 10 11 10 10 10 10 10 10 10 10 10 11 11 11 11 10 10 9 8 8 8 7 8 6 7 8 11 11 9 6 4 5 6 8 8 9 8 8 8 7 7 8 9 9 10 11 12 12 12 12 13 14 14 12 9 9 12 12 12 14 15 15 15 15 15 14 14 15 15 14 14 14 15 15 14 13 12 12 12 13 13
10 10 11 12 12 11 11 11 10 10 9 9 10 10 11 11 11 12 11 12 11 11 10 10 10 9 5 7 6 8 9 11 10 8 6 5 4 6 7 8 9 9 9 9 9 8 9 9 8 8 9 11 12 12 12 13 13 14 14 12 12 13 12 13 15 15 15 15 15 14 12 13 13 14 15 14 12 12 12 10 12 13 12 11 12
9 10 10 10 11 10 10 11 10 10 10 10 10 10 10 10 11 11 12 12 12 11 11 10 9 9 7 7 6 6 9 9 9 8 8 6 5 5 7 9 9 9 9 9 10 11 11 11 11 11 11 10 10 11 9 10 11 11 10 9 14 12 12 14 15 15 15 15 15 12 11 10 11 10 12 11 12 13 13 12 12 13 13 12 11
10 10 10 11 11 11 11 11 11 11 10 9 9 10 11 11 10 11 11 11 12 11 11 10 10 9 8 5 6 7 7 7 8 8 8 8 7 5 5 6 8 8 9 9 9 9 9 9 10 10 10 10 10 10 10 9 8 9 11 9 9 13 13 13 14 15 16 13 11 8 10 12 11 12 13 12 13 13 14 12 9 11 11 12 12
10 10 10 11 11 11 11 11 11 10 9 10 11 11 10 11 10 10 11 11 11 11 10 10 9 9 9 8 7 7 7 7 7 7 8 8 8 6 6 6 7 8 8 8 8 8 8 8 8 9 9 10 10 10 9 9 9 9 10 10 10 10 10 12 13 14 15 12 7 9 10 9 9 9 9 10 11 13 12 13 14 13 13 15 15
12 11 10 10 10 10 10 10 10 10 10 10 9 9 9 9 10 10 10 10 10 10 10 10 10 9 9 8 7 7 7 7 8 8 8 8 8 8 7 6 7 7 8 7 7 8 7 7 7 8 9 9 9 9 9 9 9 9 9 9 10 10 11 12 11 12 12 11 11 10 10 9 9 8 9 12 12 10 10 11 13 13 13 12 12
11 10 10 10 10 10 10 10 10 10 10 10 10 9 8 9 9 9 9 10 10 10 10 9 9 9 8 8 7 7 7 8 7 8 7 7 8 8 7 7 6 7 7 7 7 7 7 7 8 8 8 8 8 8 8 8 8 8 9 8 9 9 10 9 9 10 9 9 9 10 10 9 10 10 13 13 13 10 10 10 13 12 11 13 12
11 11 10 10 11 11 10 10 10 10 10 10 10 9 9 8 8 8 9 10 10 9 10 9 9 8 8 8 8 7 7 7 7 7 7 7 7 7 7 7 7 7 7 7 7 6 7 7 7 8 8 9 9 9 8 8 8 8 8 8 8 9 8 9 10 10 10 9 9 9 9 10 10 10 11 10 9 9 11 13 12 13 12 13 13
10 10 10 10 10 10 9 9 10 10 9 9 8 9 8 8 8 8 8 9 9 9 9 9 8 8 8 8 8 8 8 7 7 7 7 7 6 7 7 7 7 7 7 7 6 6 7 7 7 8 8 8 9 8 8 8 8 8 7 7 7 7 11 12 9 9 8 8 8 8 8 9 8 9 10 11 10 9 10 11 12 13 14 14 14
10 10 10 10 10 10 10 10 9 9 9 8 8 9 8 8 7 7 7 8 8 8 8 8 8 7 7 8 8 8 8 8 7 7 7 7 7 7 7 7 7 6 6 6 6 6 7 7 8 8 8 8 9 9 8 8 9 8 8 7 8 14 15 13 8 8 11 9 7 7 7 8 10 11 10 11 11 10 10 11 11 12 12 13 13
9 9 10 10 9 9 9 9 9 9 8 8 8 8 7 7 7 7 7 7 8 8 7 7 7 7 7 7 7 7 7 7 7 8 7 7 7 7 7 7 6 6 5 6 6 6 7 8 8 8 9 8 8 8 8 9 9 10 9 11 19 20 18 17 16 16 11 7 8 7 7 8 11 11 11 11 11 11 11 12 12 13 13 14 14
10 10 9 9 9 9 9 8 8 8 9 9 8 7 8 7 7 7 6 7 7 7 7 7 7 6 6 6 7 7 7 7 7 6 6 7 7 7 7 7 7 6 6 7 7 8 8 8 8 8 8 9 10 10 10 10 10 12 16 18 19 20 19 14 9 12 14 10 7 8 7 7 8 9 9 8 9 10 11 11 10 10 11 11 11
Wind_Direction
191 192 190 196 193 190 194 195 197 199 203 201 208 204 202 211 204 208 196 207 199 194 202 203 201 202 208 200 212 200 200 204 204 201 202 210 220 219 217 195 210 212 216 225 231 221 203 213 220 224 234 235 231 232 229 203 206 229 246 215 220 205 203 218 257 272 272 300 314 285 345 326 309 352 285 293 290 231 287 298 301 257 201 179 176
203 194 193 195 195 193 196 194 196 199 202 201 205 205 205 201 209 207 203 201 210 202 199 205 204 204 206 207 212 213 196 205 209 206 205 207 214 210 215 210 205 218 216 216 222 228 209 216 223 219 213 227 233 230 236 226 200 208 206 220 230 214 189 221 242 275 276 270 268 316 300 256 266 260 302 297 292 302 291 301 281 278 269 70 167
201 197 199 190 195 194 198 195 196 198 202 203 204 206 202 202 201 206 210 203 201 214 201 207 201 205 209 203 205 215 210 202 212 217 209 207 213 225 212 205 212 217 215 219 220 216 219 217 220 222 216 215 221 235 239 245 245 219 205 211 217 226 195 190 229 250 265 274 280 263 258 318 292 295 290 283 285 271 273 272 290 306 332 298 264
195 210 201 194 194 194 195 200 199 199 204 204 206 207 205 199 198 204 207 215 200 203 214 209 203 200 207 206 202 209 209 212 209 210 217 212 212 218 227 220 215 217 218 218 216 218 219 221 223 220 221 216 218 223 230 236 237 256 252 238 231 240 266 223 202 230 260 270 266 277 288 290 290 283 272 265 272 279 292 305 286 286 298 306 301
209 202 201 200 198 196 196 201 201 204 206 207 207 208 211 204 197 203 205 212 212 199 204 213 208 201 206 206 206 206 209 210 210 212 210 213 215 216 219 222 224 225 226 223 225 219 217 221 219 223 223 222 213 220 226 223 230 231 226 226 230 232 231 234 232 229 243 255 260 258 266 265 268 273 268 278 286 284 271 259 287 293 290 303 306
227 229 206 209 204 199 202 201 205 205 209 211 209 210 211 214 202 197 208 209 213 211 199 204 210 207 208 209 209 207 209 210 209 213 212 210 210 215 218 220 220 222 224 224 225 225 223 221 225 220 221 221 222 219 224 224 221 229 227 223 223 221 223 224 228 233 238 245 258 266 255 258 261 254 276 280 273 287 293 291 283 274 248 275 297
232 208 174 213 206 205 205 209 208 208 207 214 215 210 213 213 214 205 201 210 211 214 207 202 204 209 208 212 212 209 208 211 210 211 216 216 210 212 219 217 218 219 222 225 225 222 222 223 221 222 223 222 222 222 218 223 223 221 223 229 233 228 221 225 222 229 232 239 246 247 254 256 250 251 238 234 252 261 277 284 287 282 288 278 273
335 287 229 187 191 207 220 216 213 214 211 208 219 221 215 216 214 216 207 204 213 215 217 207 202 207 209 211 214 213 207 211 211 212 213 216 214 213 218 223 218 217 221 223 228 229 224 224 224 219 222 223 224 223 225 219 218 224 220 220 223 224 230 228 223 224 228 237 242 249 253 262 262 277 281 259 248 249 252 260 261 271 279 280 271
359 324 279 271 213 203 212 213 212 215 218 212 212 221 226 221 217 216 217 216 211 217 219 219 207 205 209 210 212 215 213 209 211 209 210 212 218 218 215 218 224 222 219 222 222 227 231 226 224 227 215 215 219 226 230 225 222 219 223 221 219 224 227 231 228 228 235 245 246 250 255 250 251 252 255 256 250 256 275 275 289 288 280 271 272
354 18 340 288 256 240 213 220 215 210 214 218 214 215 223 226 224 219 220 221 219 214 221 222 222 210 208 209 212 215 217 215 206 205 205 208 209 218 216 217 222 223 223 226 227 223 226 233 231 217 212 199 203 209 224 239 245 254 228 214 219 225 226 230 232 229 234 238 241 242 244 244 244 232 234 240 242 236 238 233 242 256 268 286 287
346 341 347 329 298 265 235 224 224 217 212 217 217 219 221 224 227 227 223 226 226 218 220 225 225 225 216 211 211 215 217 220 198 194 201 208 211 212 220 219 218 225 225 223 230 233 230 227 234 223 203 196 196 198 203 216 221 236 258 268 275 242 226 227 231 239 235 237 241 245 248 256 259 274 279 280 281 286 286 284 284 285 273 278 281
357 4 3 333 328 306 272 242 227 223 221 217 217 218 220 221 227 225 224 223 223 227 224 224 229 229 227 221 216 214 220 218 196 190 196 201 210 216 217 221 221 221 226 227 225 228 234 236 233 232 221 217 214 195 202 206 213 223 233 246 249 252 256 254 249 238 235 242 248 250 258 257 264 257 263 269 279 292 313 306 284 271 274 269 267
357 5 11 339 318 310 289 263 238 231 228 225 224 223 220 221 222 225 225 222 222 219 226 228 225 229 233 232 228 221 219 211 194 190 192 196 203 216 224 221 225 226 225 226 229 228 228 231 241 240 240 196 201 208 200 205 212 217 223 230 242 249 255 254 242 245 275 265 252 252 248 258 262 263 264 281 299 276 279 273 273 271 268 263 267
354 349 328 251 282 304 301 283 268 248 242 239 231 229 228 226 227 226 227 227 223 224 223 224 226 225 230 235 237 236 231 201 188 188 193 194 199 204 224 230 229 230 229 230 230 228 227 232 229 233 243 238 201 206 203 207 207 213 220 226 231 236 236 241 249 247 244 252 259 259 257 255 260 259 265 268 261 259 259 266 269 274 269 268 278
358 349 336 326 320 304 320 314 303 290 267 247 243 238 234 235 234 237 236 228 225 226 229 226 225 226 227 228 233 237 238 215 183 188 191 193 198 199 218 229 235 234 234 233 234 236 229 229 230 231 227 233 240 205 215 210 210 211 216 223 225 230 229 228 226 229 230 235 238 246 249 251 251 252 253 247 245 248 250 257 270 272 276 285 282
357 358 341 337 337 337 329 304 284 285 293 289 269 251 244 250 253 260 252 253 256 240 224 233 233 229 228 229 231 233 235 219 187 190 189 192 192 197 213 226 236 242 239 236 235 232 235 235 233 232 229 225 222 221 208 212 217 217 218 220 223 226 229 224 219 219 223 224 229 234 238 237 236 244 251 251 242 234 232 242 244 246 254 260 263
351 348 345 341 343 339 335 326 309 302 294 275 293 318 333 327 317 311 319 318 307 307 296 275 273 252 242 233 234 238 237 218 183 185 190 190 183 200 208 219 232 240 245 243 238 236 233 230 231 236 232 229 218 203 208 202 219 222 225 226 228 229 231 225 206 212 215 225 226 230 237 245 252 244 243 244 249 263 266 260 248 250 256 259 264
348 343 340 343 341 339 334 327 322 316 300 310 351 50 338 318 272 267 293 329 296 288 349 313 315 318 298 272 249 241 245 226 179 185 186 181 185 197 207 217 227 234 241 243 243 241 234 231 225 228 233 232 216 197 199 197 215 223 226 230 232 235 237 242 235 203 211 209 216 222 224 230 237 246 243 235 213 223 225 238 246 255 257 255 257
346 340 336 337 332 329 324 321 320 319 328 328 323 23 302 312 322 323 297 262 251 245 226 213 216 230 264 298 322 295 264 249 178 187 185 179 190 200 206 218 227 232 234 238 240 243 243 233 225 225 226 231 220 197 197 196 214 219 224 231 235 236 237 236 240 240 208 214 228 228 240 241 238 235 237 235 217 206 228 240 249 248 254 257 264
340 333 330 329 329 324 319 319 314 322 330 344 353 336 356 351 350 344 336 295 278 285 280 273 255 247 219 217 225 253 319 318 331 225 184 186 191 198 211 219 230 232 233 236 235 234 236 240 226 218 225 225 219 201 199 200 211 218 221 227 232 235 235 238 239 243 247 214 211 213 224 228 230 231 234 233 229 212 221 230 235 239 245 251 252
334 333 329 329 332 327 328 335 334 333 338 346 339 328 334 342 336 284 280 298 288 268 272 260 258 267 263 262 251 227 200 176 192 250 261 209 198 203 214 222 229 234 234 233 236 236 231 230 238 212 212 220 218 201 201 205 211 217 220 226 228 234 240 241 236 231 236 243 244 231 220 222 232 237 233 231 229 224 217 218 225 229 234 241 248
333 331 329 327 328 332 331 330 328 331 335 333 325 315 312 299 278 276 274 272 280 280 277 272 263 253 243 240 227 250 232 208 201 178 183 209 225 212 215 225 227 235 236 236 235 238 237 234 233 222 205 212 215 208 204 202 213 220 224 227 233 234 245 242 251 247 237 233 236 240 243 238 236 230 234 236 231 226 222 211 211 221 225 235 241
332 329 326 324 328 327 325 323 327 329 332 316 297 291 287 270 274 283 278 276 270 269 266 270 268 267 269 255 241 233 229 182 216 205 185 189 197 211 222 227 236 241 246 245 240 242 241 243 241 224 204 209 213 212 207 206 205 220 228 233 233 228 234 240 244 247 251 249 244 241 235 238 241 242 242 241 241 239 242 236 207 206 220 227 234
328 326 324 325 326 322 321 324 325 317 317 323 311 297 282 273 270 279 292 291 280 265 260 263 268 271 268 265 258 252 231 208 197 222 210 198 204 204 210 216 216 240 253 261 256 253 247 249 245 237 203 205 211 211 211 205 213 219 224 230 232 227 234 237 236 239 243 245 247 245 243 239 241 241 240 241 246 243 241 244 250 220 202 215 221
326 323 323 323 321 320 322 320 314 308 322 325 313 305 296 286 271 262 275 266 263 266 264 258 261 263 263 262 262 263 260 227 211 203 217 226 214 209 217 215 220 226 234 252 264 264 274 266 261 251 210 206 208 208 210 212 216 219 220 223 224 227 226 232 236 235 232 232 233 237 240 237 238 242 243 249 247 246 244 252 244 255 238 198 207
320 319 318 318 319 319 319 318 316 325 328 316 305 294 292 295 289 280 270 282 282 274 270 273 269 263 262 263 264 269 266 271 256 236 206 233 233 230 219 214 218 227 222 243 268 296 299 306 322 317 233 209 201 207 214 217 219 224 226 222 220 223 223 225 228 230 233 231 230 231 233 236 237 236 240 242 247 243 244 240 243 237 236 238 233
308 312 314 315 314 312 313 318 327 318 307 307 314 317 308 301 295 290 277 281 314 324 316 305 290 277 267 266 265 266 269 266 264 257 230 218 203 216 197 215 208 247 288 258 263 267 290 301 300 306 302 212 211 211 216 210 209 220 227 224 223 224 220 223 226 226 226 230 232 232 232 236 239 238 229 226 227 236 235 240 240 239 234 233 231
304 311 311 309 305 310 311 316 313 312 322 324 320 317 311 308 303 296 296 299 302 297 298 300 311 319 313 302 290 280 275 274 270 262 254 243 205 160 177 189 188 193 209 223 211 226 241 289 298 283 264 244 230 233 230 223 217 209 215 217 218 222 226 226 228 233 232 229 231 233 237 233 236 232 233 232 234 228 222 229 233 235 235 229 231
304 305 304 301 301 301 303 312 315 317 312 308 306 310 314 315 317 312 306 302 292 285 279 282 279 273 266 275 294 299 291 288 281 277 77 130 195 219 208 208 205 200 201 184 182 189 212 233 245 262 269 257 248 240 233 236 236 236 231 227 224 220 218 220 223 224 225 228 228 228 229 230 232 231 231 235 229 226 213 220 223 233 230 234 239
297 298 299 300 301 313 322 316 310 307 306 310 312 308 312 306 286 290 295 287 282 280 264 258 262 279 280 270 267 273 276 280 306 301 274 253 230 213 216 224 237 236 182 178 181 200 217 237 241 254 260 260 250 241 240 234 234 235 238 232 230 229 221 216 220 221 220 224 227 227 229 228 230 226 230 232 232 229 223 216 223 222 228 231 236
284 286 290 295 316 318 310 308 314 311 307 306 309 310 306 305 271 239 242 253 267 273 276 273 270 261 252 278 272 261 272 282 286 283 279 271 268 260 229 224 226 229 215 132 165 213 218 211 225 243 253 257 256 248 237 237 235 236 238 231 226 230 234 232 221 218 218 221 222 227 227 227 229 228 229 229 231 231 230 222 224 222 226 228 231
276 281 288 304 314 310 308 307 305 305 308 309 306 302 304 305 306 251 229 238 246 255 262 268 269 265 253 240 256 281 260 257 261 267 272 278 272 265 252 228 224 222 210 175 197 214 214 214 226 239 245 255 259 260 249 242 240 238 241 234 230 225 223 230 228 225 220 220 221 220 223 225 227 227 228 230 228 232 231 228 224 224 226 228 230
291 298 298 299 301 307 310 307 303 303 306 308 305 304 303 306 306 315 290 224 236 247 248 251 257 264 259 256 233 231 258 272 276 276 273 269 265 260 259 257 225 162 146 173 214 212 209 213 220 228 237 244 242 242 250 249 242 243 239 241 241 234 229 223 205 222 227 226 221 225 222 223 224 225 225 227 226 231 229 231 230 228 227 231 228
293 291 295 299 300 301 301 298 298 299 302 303 304 302 297 297 301 305 306 315 292 255 246 253 259 259 260 256 255 239 233 243 257 262 265 270 272 280 277 264 200 176 179 191 199 212 209 222 229 230 234 240 243 240 238 242 242 245 245 241 246 247 239 224 208 206 217 221 227 230 228 229 226 225 228 228 227 229 231 230 230 231 231 229 230
289 298 295 294 296 297 296 297 297 299 300 303 302 298 297 300 298 294 299 302 302 302 315 282 233 226 253 274 268 268 277 274 266 264 270 267 256 242 239 246 218 156 211 222 210 212 218 227 236 241 239 241 247 250 249 248 249 249 243 246 245 246 245 240 235 227 219 222 224 227 228 232 234 232 232 235 234 235 234 236 237 235 236 233 231
306 300 301 300 298 300 303 306 312 314 304 300 301 300 298 293 289 290 289 287 289 299 301 302 316 293 238 257 264 272 319 340 332 308 295 298 283 181 219 246 247 221 205 197 204 217 229 238 247 251 253 254 251 248 249 253 250 251 253 247 247 246 247 246 241 236 230 234 232 233 233 233 234 238 242 243 240 240 244 241 239 234 234 236 234
305 302 301 301 305 305 307 306 300 300 306 302 296 290 285 282 284 288 289 288 290 293 291 300 302 306 282 261 302 6 34 348 334 311 316 314 242 206 251 258 259 249 234 227 220 227 230 238 241 247 249 250 248 248 247 249 250 251 252 251 250 250 249 248 245 245 239 237 237 232 229 235 238 238 238 244 246 244 240 241 242 241 240 239 233
301 295 295 307 309 303 299 295 294 293 291 287 284 283 283 284 288 293 292 290 292 288 293 298 306 300 307 318 333 339 340 317 298 295 172 111 122 237 248 256 251 253 256 258 246 234 234 238 240 243 245 245 246 246 248 247 250 252 251 251 250 251 250 254 251 247 246 247 244 240 238 239 237 238 236 235 237 238 239 240 245 246 241 234 232
287 287 286 282 290 295 294 293 291 291 291 290 289 289 289 288 289 287 289 294 293 294 298 301 299 298 308 324 326 340 325 315 328 349 324 311 290 266 256 254 251 252 247 248 257 265 266 258 257 254 254 255 254 250 248 249 250 250 248 249 249 250 248 247 248 246 247 246 245 246 245 244 243 242 240 243 243 242 243 242 238 239 244 245 236
291 293 294 316 307 292 291 290 289 291 289 289 286 287 290 290 289 289 294 293 294 298 299 297 294 294 307 360 7 344 322 313 307 307 302 295 295 300 299 292 286 278 279 273 261 251 249 255 257 258 256 255 254 254 253 253 250 246 248 251 250 249 248 248 248 247 245 244 247 245 246 246 248 247 242 238 240 243 243 241 242 244 245 242 245
306 302 301 299 296 295 285 281 281 282 283 283 287 288 290 292 292 292 289 289 292 294 294 296 296 297 317 57 36 22 318 302 296 293 288 278 288 293 295 294 297 304 305 296 286 274 271 268 263 260 267 269 267 262 258 255 252 251 248 245 250 247 243 248 251 252 252 250 247 245 246 249 247 247 247 244 240 238 239 234 235 234 234 237 238
309 308 305 300 295 289 288 286 287 290 289 290 288 288 290 290 292 291 292 293 290 291 292 294 297 297 313 17 9 344 310 292 293 302 305 313 342 350 339 333 342 352 347 348 346 346 341 332 319 302 288 280 277 271 268 273 278 279 280 271 261 257 254 255 253 255 256 255 255 255 259 253 252 244 245 246 248 248 246 241 240 243 239 233 232
303 301 300 295 294 290 290 287 288 288 288 286 285 288 292 298 297 293 289 288 288 289 291 295 296 300 306 334 346 315 296 307 314 316 323 322 323 333 341 340 339 339 337 336 339 347 341 333 330 332 340 342 344 342 339 322 313 293 279 262 263 269 273 270 267 262 261 266 280 269 252 255 256 255 250 245 244 247 250 248 237 235 234 237 240
300 299 295 293 291 289 288 289 288 288 285 287 291 291 291 288 285 283 285 287 289 291 293 295 297 302 304 314 322 319 323 319 319 321 323 319 317 326 342 341 335 332 331 337 343 345 338 334 332 332 336 335 339 342 338 342 345 344 341 335 322 309 293 281 275 274 275 276 264 268 269 259 250 255 265 267 262 256 252 247 241 237 235 238 236
301 297 295 294 292 290 290 291 291 289 290 290 286 288 289 287 285 284 285 287 292 295 295 297 300 301 305 311 317 320 319 317 316 317 318 318 318 323 327 336 337 329 327 330 341 339 335 333 335 336 337 337 339 337 334 333 336 334 335 331 325 323 321 323 336 337 335 319 297 283 271 274 270 268 263 263 260 258 263 259 254 244 241 242 236
303 301 297 293 291 290 291 291 292 292 292 289 289 289 290 292 291 293 293 293 293 294 296 299 299 302 306 309 315 316 317 316 316 317 316 318 321 321 321 330 332 324 323 330 336 339 339 338 338 337 333 332 331 330 329 333 332 334 331 329 324 320 320 333 349 332 325 329 330 324 314 304 286 271 265 266 267 263 259 252 262 259 249 244 240
299 293 295 294 295 294 294 291 289 290 293 292 291 291 289 289 291 294 295 295 294 293 292 293 299 305 309 309 312 313 315 316 316 315 315 317 317 318 323 328 329 328 328 332 338 343 346 344 341 336 332 330 327 329 333 334 334 330 334 331 330 323 328 335 324 313 311 314 316 317 313 316 311 312 291 277 269 270 269 267 263 258 256 249 242
294 295 296 301 301 299 294 292 291 292 292 296 298 296 296 296 294 293 294 295 292 292 293 295 299 305 308 310 314 315 317 317 317 315 319 323 326 328 329 330 331 332 331 334 343 350 350 346 343 338 337 335 336 336 335 332 329 328 324 320 316 327 323 317 304 297 295 301 298 292 289 288 289 293 297 298 286 280 272 271 268 266 260 256 251
298 299 300 301 299 298 296 296 295 295 296 300 300 298 298 298 298 301 301 297 294 296 297 300 304 307 308 312 315 316 318 320 320 325 326 327 326 326 326 330 340 343 338 343 355 1 1 354 351 347 346 343 341 339 337 336 332 328 321 314 317 319 311 298 284 284 293 285 270 268 265 269 272 271 275 277 279 279 277 275 274 276 277 272 265
303 305 304 304 300 300 301 300 298 298 301 298 298 300 304 301 300 299 299 301 301 301 302 303 304 307 310 313 317 319 321 322 326 331 335 334 329 331 334 343 352 359 2 9 14 15 17 12 8 5 1 357 350 347 343 341 340 337 334 329 321 315 309 307 302 291 283 279 287 280 278 273 272 269 268 269 273 274 273 270 270 270 271 272 267
308 308 307 305 304 301 302 302 304 303 299 295 296 297 297 298 299 301 304 304 301 302 303 306 312 316 317 318 324 325 330 333 341 348 352 346 343 347 354 2 9 14 20 21 22 26 26 23 16 13 11 6 2 355 350 347 346 340 327 319 320 315 307 300 296 293 289 280 269 268 259 260 263 265 267 269 271 270 271 278 279 273 263 257 258